Location: Csohesd
(46.2500°N, 22.6167°E)
Time: 13:01:57
(UTC+00:00)

Cosmos 389 Rocket - Pass Details

Date: 21 October 2021
Orbit: 438 x 468 km, 81.1° (Epoch: 07 December)

Event Time Altitude Azimuth Distance (km) Brightness Sun altitude
Rises 16:05:55 0° 190° (S) 2,412 6.4 -6.5°
Reaches altitude 10° 16:07:57 10° 191° (S) 1,550 5.4 -6.8°
Maximum altitude 16:11:20 86° 276° (W) 449 2.4 -7.4°
Drops below altitude 10° 16:14:46 10° 10° (N) 1,574 5.0 -8.0°
Sets 16:16:51 0° 11° (N) 2,455 6.0 -8.4°
